TUI22MC EKKA-LGSA

Flight info

Callsign TUI22MC
Flight time N/A
Altitude 37000
Route INTET DCT NEDIK DCT SUBIX DCT OMIFU DCT TEKNO/N0450F390 DCT RIGMU DCT RAMAP DCT TALAS UM749 ELPIS UP20 ROPOX UM749 ATV UP169 MANOK
Aircraft B38M/M-SDE1FGHILORVWXY/HB1

Departure

Time 2026-04-23 08:06
Airport Midtjyllands Airport / Air Base Karup (EKKA)

Arrival

Time N/A
Airport Chania International Airport (LGSA)
Time Latitude Longitude Altitude Speed Heading
2026-04-23 07:47 56.31097 9.11957 181 ft 0 kts 291°
2026-04-23 07:58 56.31100 9.11927 181 ft 5 kts 270°
2026-04-23 07:59 56.31070 9.11824 181 ft 14 kts 231°
2026-04-23 07:59 56.30963 9.11804 181 ft 21 kts 152°
2026-04-23 07:59 56.30949 9.11818 181 ft 0 kts 151°
2026-04-23 08:01 56.30949 9.11819 181 ft 1 kts 151°
2026-04-23 08:01 56.30909 9.11857 181 ft 12 kts 151°
2026-04-23 08:02 56.30809 9.11958 181 ft 21 kts 150°
2026-04-23 08:02 56.30654 9.12119 181 ft 29 kts 149°
2026-04-23 08:02 56.30468 9.12325 181 ft 33 kts 147°
2026-04-23 08:02 56.30257 9.12517 181 ft 35 kts 165°
2026-04-23 08:03 56.30014 9.12599 181 ft 35 kts 169°
2026-04-23 08:03 56.29871 9.12639 181 ft 15 kts 170°
2026-04-23 08:03 56.29854 9.12645 181 ft 0 kts 170°
2026-04-23 08:03 56.29853 9.12645 181 ft 0 kts 170°
2026-04-23 08:04 56.29852 9.12645 181 ft 0 kts 170°
2026-04-23 08:04 56.29846 9.12647 181 ft 2 kts 170°
2026-04-23 08:04 56.29833 9.12651 181 ft 3 kts 170°
2026-04-23 08:04 56.29803 9.12658 181 ft 5 kts 181°
2026-04-23 08:05 56.29764 9.12632 181 ft 7 kts 219°
2026-04-23 08:05 56.29746 9.12529 179 ft 11 kts 266°
2026-04-23 08:05 56.29743 9.12209 179 ft 60 kts 269°
2026-04-23 08:05 56.29734 9.10974 181 ft 135 kts 269°
2026-04-23 08:06 56.29719 9.08949 393 ft 176 kts 270°
2026-04-23 08:06 56.29722 9.06723 1298 ft 176 kts 270°
2026-04-23 08:06 56.29714 9.04556 2166 ft 181 kts 270°
2026-04-23 08:06 56.29703 9.02127 2662 ft 203 kts 270°
2026-04-23 08:07 56.29682 8.99405 3163 ft 230 kts 270°
2026-04-23 08:07 56.29649 8.96402 3819 ft 249 kts 270°
2026-04-23 08:07 56.29599 8.93224 4555 ft 262 kts 270°
2026-04-23 08:07 56.29516 8.89937 5619 ft 264 kts 270°
2026-04-23 08:08 56.29274 8.86629 6594 ft 273 kts 254°
2026-04-23 08:08 56.28167 8.83810 7538 ft 287 kts 221°
2026-04-23 08:08 56.26312 8.82354 8392 ft 300 kts 188°
2026-04-23 08:08 56.24226 8.82675 9249 ft 307 kts 162°
2026-04-23 08:09 56.22383 8.84570 10133 ft 307 kts 133°
2026-04-23 08:09 56.20982 8.87503 10806 ft 317 kts 130°
2026-04-23 08:09 56.19429 8.90497 11220 ft 337 kts 131°
2026-04-23 08:09 56.17766 8.93643 11613 ft 355 kts 131°
2026-04-23 08:10 56.16035 8.96924 12171 ft 366 kts 131°
2026-04-23 08:10 56.14295 9.00272 13054 ft 368 kts 131°
2026-04-23 08:10 56.10790 9.07098 14611 ft 375 kts 131°
2026-04-23 08:11 56.09019 9.10564 15353 ft 379 kts 131°
2026-04-23 08:11 56.07234 9.14060 16087 ft 382 kts 130°
2026-04-23 08:11 56.05424 9.17594 16779 ft 386 kts 130°
2026-04-23 08:11 56.03605 9.21148 17497 ft 389 kts 130°
2026-04-23 08:12 56.01767 9.24731 18189 ft 393 kts 130°
2026-04-23 08:12 55.99935 9.28295 18820 ft 396 kts 131°
2026-04-23 08:12 55.98065 9.31928 19423 ft 398 kts 131°
2026-04-23 08:12 55.96181 9.35587 20030 ft 401 kts 131°
2026-04-23 08:13 55.94287 9.39253 20632 ft 403 kts 131°
2026-04-23 08:13 55.92381 9.42946 21246 ft 405 kts 131°
2026-04-23 08:13 55.90464 9.46654 21824 ft 407 kts 131°
2026-04-23 08:13 55.88534 9.50376 22403 ft 410 kts 131°
2026-04-23 08:14 55.86595 9.54116 22968 ft 412 kts 131°
2026-04-23 08:14 55.84645 9.57869 23528 ft 415 kts 131°
2026-04-23 08:14 55.82678 9.61649 24056 ft 417 kts 131°
2026-04-23 08:14 55.80698 9.65462 24433 ft 422 kts 131°
2026-04-23 08:15 55.78720 9.69244 24857 ft 424 kts 131°
2026-04-23 08:15 55.76709 9.73100 25298 ft 427 kts 131°
2026-04-23 08:15 55.74683 9.76969 25721 ft 429 kts 131°
2026-04-23 08:15 55.72640 9.80870 26150 ft 432 kts 131°
2026-04-23 08:16 55.70586 9.84779 26560 ft 434 kts 131°
2026-04-23 08:16 55.68518 9.88716 26985 ft 437 kts 131°
2026-04-23 08:16 55.66441 9.92661 27386 ft 439 kts 131°
2026-04-23 08:16 55.64350 9.96627 27784 ft 442 kts 131°
2026-04-23 08:17 55.62246 10.00608 28170 ft 444 kts 131°
2026-04-23 08:17 55.60125 10.04616 28556 ft 446 kts 131°
2026-04-23 08:17 55.57995 10.08635 28951 ft 449 kts 131°
2026-04-23 08:17 55.55858 10.12676 29267 ft 453 kts 130°
2026-04-23 08:18 55.53687 10.16748 29592 ft 456 kts 130°
2026-04-23 08:18 55.51513 10.20835 29980 ft 458 kts 130°
2026-04-23 08:18 55.49353 10.24879 30322 ft 460 kts 130°
2026-04-23 08:18 55.47146 10.29007 30626 ft 462 kts 130°
2026-04-23 08:19 55.44936 10.33135 30931 ft 464 kts 130°
2026-04-23 08:19 55.42716 10.37278 31241 ft 466 kts 130°
2026-04-23 08:19 55.40491 10.41423 31600 ft 466 kts 130°
2026-04-23 08:19 55.38275 10.45557 32037 ft 464 kts 130°
2026-04-23 08:20 55.36058 10.49685 32473 ft 463 kts 130°
2026-04-23 08:20 55.33848 10.53795 32900 ft 461 kts 130°
2026-04-23 08:20 55.31650 10.57871 33354 ft 459 kts 130°
2026-04-23 08:20 55.29460 10.61931 33869 ft 456 kts 130°
2026-04-23 08:21 55.27284 10.65958 34305 ft 454 kts 130°
2026-04-23 08:21 55.25107 10.69974 34651 ft 453 kts 130°
2026-04-23 08:21 55.22937 10.73966 34977 ft 452 kts 130°
2026-04-23 08:21 55.20766 10.77955 35293 ft 452 kts 130°
2026-04-23 08:22 55.18599 10.81927 35602 ft 451 kts 130°
2026-04-23 08:22 55.16430 10.85896 35903 ft 451 kts 130°
2026-04-23 08:22 55.14263 10.89853 36198 ft 450 kts 130°
2026-04-23 08:22 55.12127 10.93750 36473 ft 450 kts 130°
2026-04-23 08:23 55.09962 10.97694 36742 ft 449 kts 130°
2026-04-23 08:23 55.07797 11.01630 37009 ft 449 kts 130°
2026-04-23 08:23 55.05631 11.05556 37157 ft 451 kts 130°
2026-04-23 08:23 55.03449 11.09500 37297 ft 452 kts 130°
2026-04-23 08:24 54.99082 11.17372 37298 ft 448 kts 130°
2026-04-23 08:24 54.94754 11.25156 37287 ft 447 kts 130°
2026-04-23 08:25 54.90420 11.32922 37289 ft 447 kts 130°
2026-04-23 08:25 54.86102 11.40634 37286 ft 447 kts 130°
2026-04-23 08:26 54.81734 11.48412 37291 ft 448 kts 130°
2026-04-23 08:26 54.77382 11.56130 37278 ft 451 kts 130°
2026-04-23 08:27 54.72991 11.63895 37276 ft 451 kts 130°
2026-04-23 08:27 54.68595 11.71644 37287 ft 451 kts 130°
2026-04-23 08:28 54.64214 11.79341 37264 ft 449 kts 130°
2026-04-23 08:28 54.59821 11.87033 37267 ft 449 kts 130°
2026-04-23 08:29 54.55426 11.94704 37269 ft 451 kts 130°
2026-04-23 08:29 54.50997 12.02408 37269 ft 453 kts 130°
2026-04-23 08:30 54.46730 12.10314 37231 ft 454 kts 133°
2026-04-23 08:30 54.44132 12.13459 37229 ft 459 kts 148°
2026-04-23 08:30 54.41358 12.16168 37231 ft 459 kts 141°
2026-04-23 08:31 54.36141 12.22448 37295 ft 459 kts 140°
2026-04-23 08:31 54.31005 12.28849 37256 ft 455 kts 139°
2026-04-23 08:32 54.25916 12.35242 37259 ft 458 kts 139°
2026-04-23 08:32 54.20771 12.41694 37258 ft 459 kts 139°
2026-04-23 08:33 54.15613 12.48142 37258 ft 459 kts 139°
2026-04-23 08:33 54.10456 12.54568 37272 ft 459 kts 139°
2026-04-23 08:34 54.05306 12.60966 37269 ft 457 kts 139°
2026-04-23 08:34 54.00170 12.67326 37272 ft 457 kts 139°
2026-04-23 08:35 53.95025 12.73678 37281 ft 459 kts 138°
2026-04-23 08:35 53.89846 12.80051 37267 ft 460 kts 138°
2026-04-23 08:36 53.84655 12.86419 37254 ft 460 kts 138°
2026-04-23 08:36 53.79454 12.92780 37258 ft 460 kts 139°
2026-04-23 08:37 53.74270 12.99100 37252 ft 459 kts 139°
2026-04-23 08:37 53.69121 13.05357 37253 ft 459 kts 139°
2026-04-23 08:38 53.63930 13.11648 37264 ft 460 kts 138°
2026-04-23 08:38 53.58703 13.17960 37253 ft 463 kts 138°
2026-04-23 08:39 53.53455 13.24280 37246 ft 463 kts 138°
2026-04-23 08:39 53.48217 13.30567 37257 ft 462 kts 139°
2026-04-23 08:40 53.42983 13.36830 37249 ft 462 kts 139°
2026-04-23 08:40 53.37746 13.43077 37251 ft 462 kts 139°
2026-04-23 08:41 53.32512 13.49304 37264 ft 463 kts 138°
2026-04-23 08:41 53.27233 13.55562 37256 ft 466 kts 138°
2026-04-23 08:42 53.21942 13.61815 37248 ft 466 kts 138°
2026-04-23 08:42 53.16662 13.68037 37246 ft 464 kts 139°
2026-04-23 08:43 53.11390 13.74231 37252 ft 464 kts 139°
2026-04-23 08:43 53.06149 13.80368 37246 ft 464 kts 139°
2026-04-23 08:44 53.00862 13.86542 37254 ft 466 kts 138°
2026-04-23 08:44 52.95544 13.92730 37242 ft 468 kts 138°
2026-04-23 08:45 52.90206 13.98924 37238 ft 467 kts 139°
2026-04-23 08:45 52.84896 14.05069 37237 ft 465 kts 139°
2026-04-23 08:46 52.79586 14.11193 37234 ft 466 kts 139°
2026-04-23 08:46 52.74272 14.17304 37236 ft 466 kts 139°
2026-04-23 08:47 52.68941 14.23416 37250 ft 468 kts 139°
2026-04-23 08:47 52.63597 14.29523 37233 ft 468 kts 139°
2026-04-23 08:48 52.58238 14.35631 37231 ft 468 kts 139°
2026-04-23 08:48 52.52906 14.41692 37226 ft 468 kts 139°
2026-04-23 08:49 52.47545 14.47769 37228 ft 468 kts 139°
2026-04-23 08:49 52.42175 14.53837 37234 ft 468 kts 139°
2026-04-23 08:50 52.36587 14.59406 37201 ft 479 kts 154°
2026-04-23 08:50 52.30336 14.63251 37181 ft 479 kts 153°
2026-04-23 08:51 52.24106 14.67105 37227 ft 480 kts 153°
2026-04-23 08:51 52.17862 14.70937 37219 ft 479 kts 153°
2026-04-23 08:52 52.11620 14.74756 37226 ft 479 kts 154°
2026-04-23 08:52 52.06428 14.77923 37224 ft 479 kts 154°
2026-04-23 08:53 52.00203 14.81711 37226 ft 477 kts 154°
2026-04-23 08:53 51.92946 14.86113 37220 ft 481 kts 154°
2026-04-23 08:54 51.87693 14.89288 37222 ft 481 kts 154°
2026-04-23 08:54 51.81423 14.93069 37224 ft 481 kts 154°
2026-04-23 08:55 51.75165 14.96832 37218 ft 479 kts 154°
2026-04-23 08:55 51.68953 15.00556 37223 ft 479 kts 154°
2026-04-23 08:56 51.62698 15.04295 37223 ft 479 kts 154°
2026-04-23 08:56 51.56447 15.08020 37221 ft 479 kts 154°
2026-04-23 08:57 51.50177 15.11746 37225 ft 481 kts 154°
2026-04-23 08:57 51.43899 15.15465 37220 ft 481 kts 154°
2026-04-23 08:58 51.37643 15.19161 37221 ft 481 kts 154°
2026-04-23 08:58 51.31346 15.22869 37224 ft 481 kts 154°
2026-04-23 08:59 51.25064 15.26558 37222 ft 480 kts 154°
2026-04-23 08:59 51.18802 15.30225 37218 ft 479 kts 154°
2026-04-23 09:00 51.12537 15.33883 37219 ft 480 kts 154°
2026-04-23 09:00 51.06249 15.37544 37214 ft 482 kts 154°
2026-04-23 09:01 50.99941 15.41205 37215 ft 482 kts 154°
2026-04-23 09:01 50.93652 15.44845 37208 ft 481 kts 154°
2026-04-23 09:02 50.87366 15.48473 37207 ft 481 kts 154°
2026-04-23 09:02 50.81071 15.52096 37206 ft 481 kts 154°
2026-04-23 09:03 50.74830 15.55678 37216 ft 481 kts 154°
2026-04-23 09:03 50.68548 15.59271 37220 ft 480 kts 154°
2026-04-23 09:04 50.62249 15.62865 37198 ft 482 kts 154°
2026-04-23 09:04 50.55935 15.66458 37200 ft 483 kts 154°
2026-04-23 09:05 50.49613 15.70044 37211 ft 482 kts 154°
2026-04-23 09:05 50.43324 15.73602 37207 ft 479 kts 154°
2026-04-23 09:06 50.37046 15.77144 37187 ft 480 kts 154°
2026-04-23 09:06 50.30758 15.80681 37197 ft 480 kts 154°
2026-04-23 09:07 50.24467 15.84210 37226 ft 481 kts 154°
2026-04-23 09:07 50.18172 15.87733 37227 ft 480 kts 154°
2026-04-23 09:08 50.11877 15.91246 37228 ft 480 kts 154°
2026-04-23 09:08 50.05620 15.94728 37196 ft 480 kts 154°
2026-04-23 09:09 49.99404 15.98454 37202 ft 478 kts 152°
2026-04-23 09:09 49.93246 16.02374 37195 ft 478 kts 152°
2026-04-23 09:10 49.83994 16.08198 37223 ft 479 kts 152°
2026-04-23 09:11 49.77798 16.12085 37196 ft 481 kts 152°
2026-04-23 09:11 49.71627 16.15944 37199 ft 480 kts 152°
2026-04-23 09:12 49.65451 16.19797 37200 ft 479 kts 152°
2026-04-23 09:12 49.59264 16.23645 37191 ft 479 kts 152°
2026-04-23 09:13 49.53074 16.27485 37185 ft 479 kts 152°
2026-04-23 09:13 49.46932 16.31284 37212 ft 478 kts 153°
2026-04-23 09:14 49.40771 16.35086 37183 ft 476 kts 153°
2026-04-23 09:14 49.34614 16.38875 37183 ft 477 kts 153°
2026-04-23 09:15 49.28454 16.42655 37176 ft 477 kts 153°
2026-04-23 09:15 49.22294 16.46424 37179 ft 476 kts 153°
2026-04-23 09:16 49.16156 16.50171 37180 ft 474 kts 153°
2026-04-23 09:16 49.10025 16.53904 37181 ft 475 kts 153°
2026-04-23 09:17 49.03875 16.57637 37186 ft 476 kts 154°
2026-04-23 09:17 48.97717 16.61365 37178 ft 476 kts 154°
2026-04-23 09:18 48.91581 16.65071 37184 ft 474 kts 154°
2026-04-23 09:18 48.85442 16.68769 37190 ft 474 kts 154°
2026-04-23 09:19 48.79305 16.72455 37185 ft 474 kts 154°
2026-04-23 09:19 48.73161 16.76136 37198 ft 474 kts 154°
2026-04-23 09:20 48.67045 16.79790 37181 ft 471 kts 154°
2026-04-23 09:20 48.60980 16.83405 37191 ft 472 kts 154°
2026-04-23 09:21 48.54865 16.87040 37188 ft 472 kts 154°
2026-04-23 09:21 48.48746 16.90668 37181 ft 472 kts 154°
2026-04-23 09:22 48.42650 16.94272 37190 ft 470 kts 154°
2026-04-23 09:22 48.36559 16.97865 37186 ft 470 kts 154°
2026-04-23 09:23 48.30472 17.01446 37186 ft 470 kts 154°
2026-04-23 09:23 48.24374 17.05024 37184 ft 470 kts 154°
2026-04-23 09:24 48.18297 17.08582 37183 ft 468 kts 154°
2026-04-23 09:24 48.12232 17.12122 37184 ft 469 kts 154°
2026-04-23 09:25 48.06142 17.15668 37183 ft 469 kts 155°
2026-04-23 09:25 48.00063 17.19200 37191 ft 469 kts 154°
2026-04-23 09:26 47.93991 17.22717 37192 ft 468 kts 154°
2026-04-23 09:26 47.87906 17.26234 37189 ft 469 kts 155°
2026-04-23 09:27 47.81859 17.29721 37182 ft 469 kts 155°
2026-04-23 09:27 47.75768 17.33225 37202 ft 469 kts 154°
2026-04-23 09:28 47.69674 17.36722 37191 ft 470 kts 154°
2026-04-23 09:28 47.63564 17.40226 37190 ft 470 kts 153°
2026-04-23 09:28 47.60715 17.42478 37215 ft 460 kts 141°
2026-04-23 09:29 47.58012 17.45066 37174 ft 465 kts 143°
2026-04-23 09:29 47.52547 17.50165 37209 ft 465 kts 143°
2026-04-23 09:30 47.47091 17.55287 37205 ft 464 kts 143°
2026-04-23 09:30 47.41660 17.60375 37211 ft 465 kts 143°
2026-04-23 09:31 47.36197 17.65483 37216 ft 465 kts 143°
2026-04-23 09:31 47.30733 17.70578 37216 ft 465 kts 143°
2026-04-23 09:32 47.25265 17.75664 37198 ft 464 kts 143°
2026-04-23 09:32 47.19807 17.80729 37184 ft 463 kts 143°
2026-04-23 09:33 47.14354 17.85776 37168 ft 463 kts 143°
2026-04-23 09:33 47.08893 17.90819 37161 ft 463 kts 143°
2026-04-23 09:34 47.03428 17.95852 37176 ft 464 kts 143°
2026-04-23 09:34 46.97959 18.00877 37160 ft 463 kts 143°
2026-04-23 09:35 46.92508 18.05874 37163 ft 462 kts 143°
2026-04-23 09:35 46.87082 18.10835 37158 ft 463 kts 143°
2026-04-23 09:36 46.81626 18.15812 37155 ft 462 kts 143°
2026-04-23 09:36 46.76158 18.20788 37169 ft 463 kts 143°
2026-04-23 09:37 46.70692 18.25749 37163 ft 462 kts 143°
2026-04-23 09:37 46.65228 18.30697 37145 ft 463 kts 143°
2026-04-23 09:38 46.59759 18.35637 37156 ft 463 kts 144°
2026-04-23 09:38 46.54287 18.40569 37153 ft 462 kts 144°
2026-04-23 09:39 46.48811 18.45493 37165 ft 463 kts 143°
2026-04-23 09:39 46.43340 18.50399 37146 ft 463 kts 143°
2026-04-23 09:40 46.37858 18.55303 37146 ft 463 kts 144°
2026-04-23 09:40 46.33299 18.59374 37150 ft 463 kts 144°
2026-04-23 09:41 46.26922 18.65053 37144 ft 463 kts 144°
2026-04-23 09:41 46.22363 18.69105 37168 ft 463 kts 143°
2026-04-23 09:42 46.16875 18.73971 37135 ft 462 kts 144°
2026-04-23 09:42 46.11383 18.78829 37141 ft 463 kts 144°
2026-04-23 09:43 46.05890 18.83676 37144 ft 463 kts 144°
2026-04-23 09:43 46.00401 18.88508 37142 ft 463 kts 143°
2026-04-23 09:44 45.94901 18.93338 37153 ft 463 kts 144°
2026-04-23 09:44 45.89397 18.98161 37140 ft 463 kts 144°
2026-04-23 09:45 45.83896 19.02970 37141 ft 463 kts 144°
2026-04-23 09:45 45.78426 19.07740 37134 ft 463 kts 144°
2026-04-23 09:46 45.72915 19.12536 37139 ft 463 kts 144°
2026-04-23 09:46 45.67410 19.17313 37144 ft 463 kts 144°
2026-04-23 09:47 45.61895 19.22091 37140 ft 463 kts 144°
2026-04-23 09:47 45.56377 19.26860 37139 ft 464 kts 144°
2026-04-23 09:48 45.50856 19.31622 37143 ft 463 kts 144°
2026-04-23 09:48 45.45354 19.36356 37130 ft 461 kts 144°
2026-04-23 09:49 45.39798 19.40952 37135 ft 463 kts 147°
2026-04-23 09:49 45.34119 19.45323 37134 ft 463 kts 146°
2026-04-23 09:50 45.28501 19.49677 37137 ft 463 kts 146°
2026-04-23 09:50 45.22850 19.54051 37135 ft 461 kts 146°
2026-04-23 09:51 45.17209 19.58407 37156 ft 462 kts 146°
2026-04-23 09:51 45.11563 19.62757 37131 ft 461 kts 146°
2026-04-23 09:52 45.05918 19.67097 37142 ft 462 kts 146°
2026-04-23 09:52 45.00271 19.71427 37128 ft 462 kts 147°
2026-04-23 09:53 44.94625 19.75748 37134 ft 462 kts 147°
2026-04-23 09:53 44.88969 19.80066 37158 ft 462 kts 147°
2026-04-23 09:54 44.83316 19.84372 37130 ft 461 kts 147°
2026-04-23 09:54 44.77668 19.88666 37145 ft 461 kts 147°
2026-04-23 09:55 44.72026 19.92944 37141 ft 461 kts 147°
2026-04-23 09:55 44.66377 19.97219 37141 ft 461 kts 147°
2026-04-23 09:56 44.60769 20.01453 37166 ft 461 kts 147°
2026-04-23 09:56 44.55121 20.05707 37146 ft 460 kts 147°
2026-04-23 09:57 44.49479 20.09949 37141 ft 459 kts 147°
2026-04-23 09:57 44.43842 20.14176 37143 ft 459 kts 147°
2026-04-23 09:58 44.38203 20.18396 37137 ft 460 kts 147°
2026-04-23 09:58 44.32558 20.22612 37145 ft 459 kts 147°
2026-04-23 09:59 44.26956 20.26785 37134 ft 459 kts 147°
2026-04-23 09:59 44.21314 20.30980 37136 ft 459 kts 147°
2026-04-23 10:00 44.15674 20.35164 37131 ft 459 kts 147°
2026-04-23 10:00 44.10023 20.39346 37139 ft 460 kts 147°
2026-04-23 10:01 44.04368 20.43523 37137 ft 461 kts 147°
2026-04-23 10:01 43.98701 20.47699 37132 ft 461 kts 147°
2026-04-23 10:02 43.93031 20.51869 37128 ft 461 kts 147°
2026-04-23 10:02 43.87357 20.56032 37134 ft 461 kts 147°
2026-04-23 10:03 43.81677 20.60192 37146 ft 461 kts 147°
2026-04-23 10:03 43.76003 20.64337 37125 ft 461 kts 148°
2026-04-23 10:04 43.70348 20.68460 37126 ft 462 kts 148°
2026-04-23 10:04 43.64666 20.72592 37131 ft 462 kts 148°
2026-04-23 10:05 43.58984 20.76718 37123 ft 462 kts 148°
2026-04-23 10:05 43.53295 20.80842 37133 ft 462 kts 148°
2026-04-23 10:06 43.47601 20.84959 37120 ft 462 kts 148°
2026-04-23 10:06 43.41886 20.89024 37116 ft 464 kts 153°
2026-04-23 10:07 43.35744 20.91875 37089 ft 467 kts 158°
2026-04-23 10:07 43.29578 20.94683 37127 ft 467 kts 158°
2026-04-23 10:08 43.23410 20.97478 37132 ft 467 kts 158°
2026-04-23 10:08 43.17239 21.00268 37103 ft 466 kts 159°
2026-04-23 10:09 43.07989 21.04440 37107 ft 466 kts 158°
2026-04-23 10:09 43.01855 21.07199 37116 ft 467 kts 159°
2026-04-23 10:10 42.95671 21.09974 37119 ft 469 kts 159°
2026-04-23 10:10 42.89479 21.12748 37117 ft 469 kts 159°
2026-04-23 10:11 42.83277 21.15519 37124 ft 470 kts 159°
2026-04-23 10:11 42.77052 21.18295 37123 ft 471 kts 159°
2026-04-23 10:12 42.70824 21.21067 37120 ft 471 kts 159°
2026-04-23 10:12 42.64591 21.23835 37122 ft 471 kts 159°
2026-04-23 10:13 42.58359 21.26597 37129 ft 472 kts 160°
2026-04-23 10:13 42.52099 21.29365 37125 ft 474 kts 160°
2026-04-23 10:14 42.45818 21.32137 37116 ft 474 kts 160°
2026-04-23 10:14 42.39544 21.34899 37116 ft 474 kts 160°
2026-04-23 10:15 42.33260 21.37661 37111 ft 476 kts 160°
2026-04-23 10:15 42.26996 21.40408 37107 ft 476 kts 160°
2026-04-23 10:16 42.20690 21.43167 37097 ft 476 kts 160°
2026-04-23 10:16 42.14386 21.45920 37083 ft 476 kts 161°
2026-04-23 10:17 42.08081 21.48667 37101 ft 476 kts 161°
2026-04-23 10:17 42.01776 21.51409 37098 ft 476 kts 161°
2026-04-23 10:18 41.95467 21.54147 37090 ft 476 kts 161°
2026-04-23 10:18 41.89155 21.56880 37104 ft 477 kts 161°
2026-04-23 10:19 41.82825 21.59616 37101 ft 477 kts 161°
2026-04-23 10:19 41.76507 21.62340 37098 ft 477 kts 161°
2026-04-23 10:20 41.70182 21.65062 37093 ft 478 kts 162°
2026-04-23 10:20 41.63888 21.67765 37087 ft 478 kts 162°